• In Romania
  • List of Countries
  • For 7 days
  • Water Temperature
  • Satellite Maps
  • Weather Map
  • Weather Widgets
  • user-avatar
    Login

    Hourly Weather Canberra

    Today, 17 January, Tuesday

    Time Temperature Precipitation Wind Pressure Humidity
    00:00 +16°C° 0 mm 1 mps 707 mmHg 76%
    01:00 +16°C° 0 mm 1 mps 707 mmHg 80%
    02:00 +16°C° 0 mm 1 mps 707 mmHg 75%
    03:00 +16°C° 0 mm 1 mps 707 mmHg 71%
    04:00 +16°C° 0 mm 1 mps 707 mmHg 66%
    05:00 +20°C° 0 mm 1 mps 707 mmHg 56%
    06:00 +22°C° 0 mm 1 mps 708 mmHg 46%
    07:00 +25°C° 0 mm 1 mps 708 mmHg 37%
    08:00 +28°C° 0 mm 3 mps 708 mmHg 34%
    09:00 +32°C° 0 mm 4 mps 709 mmHg 30%
    10:00 +35°C° 0 mm 5 mps 709 mmHg 27%
    11:00 +36°C° 0 mm 5 mps 708 mmHg 26%
    12:00 +37°C° 0 mm 5 mps 708 mmHg 25%
    13:00 +40°C° 0 mm 5 mps 707 mmHg 24%
    14:00 +39°C° 0 mm 5 mps 707 mmHg 26%
    15:00 +37°C° 0 mm 5 mps 706 mmHg 29%
    16:00 +36°C° 0 mm 4 mps 706 mmHg 31%
    17:00 +35°C° 0 mm 4 mps 705 mmHg 35%
    18:00 +33°C° 0 mm 3 mps 705 mmHg 39%
    19:00 +31°C° 0 mm 2 mps 705 mmHg 43%
    20:00 +30°C° 0 mm 2 mps 705 mmHg 45%
    21:00 +29°C° 0 mm 2 mps 705 mmHg 48%
    22:00 +28°C° 0 mm 2 mps 705 mmHg 50%
    23:00 +27°C° 0 mm 2 mps 704 mmHg 52%

    Tomorrow, 18 January, Wednesday

    Time Temperature Precipitation Wind Pressure Humidity
    00:00 +27°C° 0 mm 2 mps 704 mmHg 54%
    01:00 +26°C° 0 mm 3 mps 703 mmHg 55%
    02:00 +25°C° 0 mm 2 mps 703 mmHg 57%
    03:00 +25°C° 0 mm 2 mps 703 mmHg 59%
    04:00 +24°C° 0 mm 2 mps 703 mmHg 61%
    05:00 +25°C° 0 mm 2 mps 704 mmHg 56%
    06:00 +26°C° 0 mm 2 mps 704 mmHg 50%
    07:00 +27°C° 0 mm 2 mps 705 mmHg 44%
    08:00 +30°C° 0 mm 3 mps 705 mmHg 34%
    09:00 +34°C° 0 mm 4 mps 706 mmHg 23%
    10:00 +37°C° 0 mm 5 mps 706 mmHg 13%
    11:00 +37°C° 0 mm 5 mps 706 mmHg 13%
    12:00 +36°C° 0 mm 5 mps 706 mmHg 14%
    13:00 +36°C° 0 mm 5 mps 706 mmHg 15%
    14:00 +34°C° 0 mm 4 mps 706 mmHg 21%
    15:00 +31°C° 0 mm 3 mps 706 mmHg 26%
    16:00 +29°C° 0 mm 2 mps 706 mmHg 31%
    17:00 +28°C° 0 mm 2 mps 706 mmHg 37%
    18:00 +26°C° 0 mm 2 mps 707 mmHg 43%
    19:00 +25°C° 0 mm 2 mps 707 mmHg 49%
    20:00 +21°C° 0 mm 2 mps 707 mmHg 59%
    21:00 +19°C° 0 mm 3 mps 708 mmHg 68%
    22:00 +17°C° 0 mm 3 mps 708 mmHg 78%
    23:00 +16°C° 0 mm 3 mps 708 mmHg 78%

    Day after tomorrow, 19 January, Thursday

    Time Temperature Precipitation Wind Pressure Humidity
    00:00 +16°C° 0 mm 3 mps 708 mmHg 78%
    01:00 +14°C° 0 mm 3 mps 707 mmHg 78%
    02:00 +14°C° 0 mm 3 mps 707 mmHg 78%
    03:00 +14°C° 0 mm 2 mps 707 mmHg 79%
    04:00 +14°C° 0 mm 2 mps 707 mmHg 79%
    05:00 +14°C° 0 mm 2 mps 707 mmHg 76%
    06:00 +15°C° 0 mm 2 mps 708 mmHg 73%
    07:00 +15°C° 0 mm 2 mps 708 mmHg 71%
    08:00 +17°C° 0 mm 2 mps 708 mmHg 63%
    09:00 +20°C° 0 mm 2 mps 708 mmHg 55%
    10:00 +23°C° 0 mm 2 mps 708 mmHg 48%
    11:00 +25°C° 0 mm 2 mps 708 mmHg 42%
    12:00 +28°C° 0 mm 2 mps 708 mmHg 36%
    13:00 +30°C° 0 mm 2 mps 707 mmHg 30%
    14:00 +30°C° 0 mm 2 mps 707 mmHg 30%
    15:00 +30°C° 0 mm 3 mps 706 mmHg 30%
    16:00 +30°C° 0 mm 3 mps 705 mmHg 29%
    17:00 +27°C° 0 mm 3 mps 705 mmHg 42%
    18:00 +24°C° 0 mm 3 mps 705 mmHg 54%
    19:00 +20°C° 0 mm 3 mps 704 mmHg 66%
    20:00 +19°C° 0 mm 3 mps 705 mmHg 72%
    21:00 +18°C° 0 mm 3 mps 705 mmHg 78%
    22:00 +17°C° 0 mm 2 mps 705 mmHg 84%
    23:00 +17°C° 0 mm 2 mps 705 mmHg 86%

    20 January, Friday

    Time Temperature Precipitation Wind Pressure Humidity
    00:00 +17°C° 0 mm 2 mps 704 mmHg 88%
    01:00 +17°C° 0 mm 2 mps 703 mmHg 90%
    02:00 +17°C° 0 mm 2 mps 703 mmHg 91%
    03:00 +17°C° 0 mm 2 mps 702 mmHg 92%
    04:00 +16°C° 0 mm 1 mps 701 mmHg 93%
    05:00 +18°C° 0.3 mm 1 mps 702 mmHg 92%
    06:00 +18°C° 0.3 mm 1 mps 702 mmHg 91%
    07:00 +19°C° 0.3 mm 1 mps 702 mmHg 90%
    08:00 +20°C° 0.6 mm 1 mps 701 mmHg 88%
    09:00 +20°C° 0.6 mm 2 mps 701 mmHg 86%
    10:00 +21°C° 0.6 mm 2 mps 701 mmHg 83%
    11:00 +24°C° 0.1 mm 3 mps 700 mmHg 76%
    12:00 +26°C° 0.1 mm 4 mps 700 mmHg 69%
    13:00 +28°C° 0.1 mm 5 mps 699 mmHg 62%
    14:00 +28°C° 0.4 mm 5 mps 699 mmHg 63%
    15:00 +28°C° 0.4 mm 5 mps 699 mmHg 64%
    16:00 +28°C° 0.4 mm 5 mps 698 mmHg 65%
    17:00 +27°C° 0.2 mm 4 mps 699 mmHg 68%
    18:00 +26°C° 0.2 mm 3 mps 699 mmHg 72%
    19:00 +25°C° 0.2 mm 2 mps 700 mmHg 75%
    20:00 +23°C° 0 mm 2 mps 700 mmHg 81%
    21:00 +20°C° 0 mm 2 mps 701 mmHg 87%
    22:00 +19°C° 0 mm 1 mps 701 mmHg 93%
    23:00 +19°C° 0 mm 1 mps 701 mmHg 93%

    21 January, Saturday

    Time Temperature Precipitation Wind Pressure Humidity
    00:00 +18°C° 0 mm 1 mps 702 mmHg 94%
    01:00 +18°C° 0 mm 1 mps 702 mmHg 94%
    02:00 +16°C° 0 mm 1 mps 702 mmHg 95%
    03:00 +15°C° 0 mm 1 mps 703 mmHg 96%
    04:00 +14°C° 0 mm 1 mps 703 mmHg 97%
    05:00 +15°C° 0 mm 1 mps 704 mmHg 90%
    06:00 +16°C° 0 mm 1 mps 705 mmHg 84%
    07:00 +18°C° 0 mm 1 mps 705 mmHg 78%
    08:00 +21°C° 0 mm 1 mps 706 mmHg 64%
    09:00 +24°C° 0 mm 1 mps 706 mmHg 49%
    10:00 +26°C° 0 mm 1 mps 707 mmHg 35%
    11:00 +28°C° 0 mm 1 mps 707 mmHg 30%
    12:00 +30°C° 0 mm 1 mps 707 mmHg 26%
    13:00 +32°C° 0 mm 1 mps 707 mmHg 21%
    14:00 +31°C° 0 mm 2 mps 707 mmHg 23%
    15:00 +31°C° 0 mm 2 mps 706 mmHg 24%
    16:00 +31°C° 0 mm 3 mps 706 mmHg 26%
    17:00 +27°C° 0 mm 3 mps 707 mmHg 38%
    18:00 +24°C° 0 mm 3 mps 707 mmHg 50%
    19:00 +20°C° 0 mm 3 mps 707 mmHg 62%
    20:00 +18°C° 0 mm 3 mps 707 mmHg 71%
    21:00 +17°C° 0 mm 2 mps 708 mmHg 79%
    22:00 +15°C° 0 mm 2 mps 708 mmHg 88%
    23:00 +15°C° 0 mm 2 mps 708 mmHg 89%

    22 January, Sunday

    Time Temperature Precipitation Wind Pressure Humidity
    00:00 +14°C° 0 mm 2 mps 708 mmHg 89%
    01:00 +14°C° 0 mm 2 mps 708 mmHg 89%
    02:00 +14°C° 0 mm 1 mps 708 mmHg 90%
    03:00 +14°C° 0 mm 1 mps 708 mmHg 91%
    04:00 +13°C° 0 mm 1 mps 708 mmHg 91%
    05:00 +15°C° 0 mm 1 mps 708 mmHg 86%
    06:00 +16°C° 0 mm 1 mps 709 mmHg 81%
    07:00 +19°C° 0 mm 1 mps 709 mmHg 76%
    08:00 +22°C° 0 mm 1 mps 710 mmHg 63%
    09:00 +25°C° 0 mm 1 mps 710 mmHg 51%
    10:00 +28°C° 0 mm 1 mps 710 mmHg 39%
    11:00 +30°C° 0 mm 1 mps 710 mmHg 33%
    12:00 +33°C° 0 mm 1 mps 710 mmHg 28%
    13:00 +35°C° 0 mm 1 mps 710 mmHg 23%
    14:00 +36°C° 0 mm 2 mps 709 mmHg 23%
    15:00 +35°C° 0 mm 2 mps 709 mmHg 23%
    16:00 +35°C° 0 mm 2 mps 708 mmHg 24%
    17:00 +31°C° 0 mm 2 mps 708 mmHg 34%
    18:00 +29°C° 0 mm 2 mps 708 mmHg 44%
    19:00 +26°C° 0 mm 2 mps 708 mmHg 54%
    20:00 +24°C° 0 mm 2 mps 709 mmHg 64%
    21:00 +21°C° 0 mm 2 mps 709 mmHg 73%
    22:00 +20°C° 0 mm 1 mps 709 mmHg 82%
    23:00 +19°C° 0 mm 1 mps 709 mmHg 84%
    Show more